[Iaude] MPEC O96: 2024 OQ [a=2.14,e=0.41,i=4.8,H=22.0]
    mpec at cfa.harvard.edu 
    mpec at cfa.harvard.edu
       
    Mon Jul 29 21:13:11 EDT 2024
    
    
  
M.P.E.C. 2024-O96                                 Issued 2024 July 30, 01:11 UT
     The Minor Planet Electronic Circulars contain information on unusual
         minor planets, routine data on comets and natural satellites,
         and occasional editorial announcements.  They are published
    on behalf of Division F of the International Astronomical Union by the
          Minor Planet Center, Smithsonian Astrophysical Observatory,
                          Cambridge, MA 02138, U.S.A.
			  
             Prepared using the Tamkin Foundation Computer Network
                              MPC at CFA.HARVARD.EDU
            URL https://www.minorplanetcenter.net/    ISSN 1523-6714
                                    2024 OQ                                     
Observations:
     K24O00Q* C2024 07 27.42236120 38 43.627+06 11 00.36         20.92wXEO096F52
     K24O00Q  C2024 07 27.43031620 38 44.035+06 11 04.55         20.47wXEO096F52
     K24O00Q  C2024 07 27.43835320 38 44.451+06 11 08.52         20.82wXEO096F52
     K24O00Q  C2024 07 27.44630320 38 44.860+06 11 12.63         20.82wXEO096F52
     K24O00Q  C2024 07 27.50277720 38 47.814+06 11 40.99         20.53GVEO096F52
     K24O00Q  C2024 07 27.50343220 38 47.847+06 11 41.28         20.55GVEO096F52
     K24O00Q |C2024 07 28.13392020 39 30.560+06 17 18.50         20.7 GVEO096807
     K24O00Q |C2024 07 28.13943020 39 30.870+06 17 21.50         20.8 GVEO096807
     K24O00Q |C2024 07 28.14493020 39 31.170+06 17 24.40         20.8 GVEO096807
     K24O00Q KC2024 07 28.17378 20 39 33.396+06 16 59.92         20.7 GVEO096H36
     K24O00Q KC2024 07 28.19039 20 39 34.270+06 17 07.51         20.5 GVEO096H36
     K24O00Q HB2024 07 28.90203 20 40 20.34 +06 22 27.8          20.5 GVEO096204
     K24O00Q HB2024 07 28.91873 20 40 21.24 +06 22 35.7                VEO096204
     K24O00Q KB2024 07 29.03440120 40 27.85 +06 23 26.5          19.9 GXEO096I93
     K24O00Q KB2024 07 29.03978020 40 28.14 +06 23 29.1          20.5 GXEO096I93
     K24O00Q KB2024 07 29.04478720 40 28.40 +06 23 31.5          20.6 GXEO096I93
     K24O00Q KC2024 07 29.18536220 40 38.59 +06 24 33.3          20.8 GVEO096H21
     K24O00Q KC2024 07 29.19095420 40 38.88 +06 24 35.8          21.0 GVEO096H21
     K24O00Q KB2024 07 29.96513 20 41 28.31 +06 29 47.2          18.8 VZEO096185
     K24O00Q KB2024 07 29.98207 20 41 29.27 +06 29 53.3          18.8 VZEO096185
     K24O00Q KB2024 07 29.99808 20 41 30.22 +06 30 00.1          18.9 VZEO096185
Observer details:
185 Observatoire Astronomique Jurassien-Vicques.  Observer D. Lachat.  0.61-m
    f/3.2 reflector + CMO.
204 Schiaparelli Observatory.  Observer L. Buzzi.  0.84-m f/3.5 reflector +
    CMO.
807 Cerro Tololo Observatory, La Serena.  Observers T. Linder, R. Holmes.
    0.61-m f/6.8 Ritchey-Chretien + CCD.
F52 Pan-STARRS 2, Haleakala.  Observers J. Herman, T. Lowe, P. Minguez, A.
    Schultz, I. Smith.  Measurers K. Chambers, T. de Boer, J. Fairlamb, H.
    Gao, M. Huber, C.-C. Lin, E. Magnier, Y. Ramanjooloo, R. Wainscoat, R.
    Weryk.  1.8-m Ritchey-Chretien + CCD.
H21 Astronomical Research Observatory, Westfield.  Observer R. Holmes.
    Measurers T. Linder, R. Holmes.  0.76-m f/3.0 astrograph + CCD.
H36 Sandlot Observatory, Scranton.  Observer G. Hug.  0.56-m f/4.25 Newtonian
    Reflector + CCD.
I93 St Pardon de Conques.  Observer F. Losse.  0.40-m f/3.7 reflector + CMO.
Orbital elements:
2024 OQ                                                  Earth MOID = 0.2554 AU
Epoch 2024 Oct. 17.0 TT = JDT 2460600.5                 Veres                   
M  26.74933              (2000.0)            P               Q                  
n   0.31544152     Peri.   77.27108     +0.55153035     +0.83191774             
a   2.1372573      Node   226.37396     -0.79431506     +0.50143223             
e   0.4137262      Incl.    4.83808     -0.25471130     +0.23765224             
P   3.12           H   22.02          G   0.15           U   8                  
Residuals in seconds of arc
240727 F52  0.1+  0.1-    240728 807  0.0   0.1+    240729 I93  0.1+  0.2+
240727 F52  0.0   0.0     240728 807  0.0   0.3+    240729 I93  0.1-  0.4+
240727 F52  0.0   0.1-    240728 H36  0.6+  0.9+    240729 H21  0.1+  0.2-
240727 F52  0.1-  0.0     240728 H36  0.2-  0.4+    240729 H21  0.1-  0.2-
240727 F52  0.1+  0.0     240728 204  0.3+  0.2-    240729 185  0.6-  0.1-
240727 F52  0.1+  0.1-    240728 204  0.2-  0.3+    240729 185  0.1-  0.5-
240728 807  0.2-  0.2-    240729 I93  0.1+  0.1-    240729 185  1.1+  0.1+
Ephemeris:
2024 OQ                  a,e,i = 2.14, 0.41, 5                   q = 1.2530
Date    TT    R. A. (2000) Decl.     Delta      r    Elong.  Phase     V
2024 06 30    20 05 03.0 -01 45 05   0.2901  1.2754   149.7    23.7    21.0
...
2024 07 15    20 24 31.6 +03 28 54   0.2637  1.2563   152.5    21.9    20.7
...
2024 07 23    20 33 49.6 +05 26 06   0.2585  1.2530   153.8    21.0    20.6
...
2024 07 29    20 40 25.8 +06 23 32   0.2583  1.2539   154.8    20.2    20.6
2024 07 30    20 41 30.3 +06 30 23   0.2586  1.2543   155.0    20.0    20.6
2024 07 31    20 42 34.5 +06 36 25   0.2590  1.2548   155.1    19.9    20.6
...
2024 08 06    20 48 55.5 +06 56 13   0.2632  1.2593   156.0    19.1    20.6
...
2024 08 14    20 57 26.9 +06 42 00   0.2740  1.2697   157.0    18.2    20.7
...
2024 08 29    21 14 30.2 +04 45 03   0.3114  1.3013   156.4    18.1    21.0
M. P. C. Staff               (C) Copyright 2024 MPC           M.P.E.C. 2024-O96
    
    
More information about the Iaude
mailing list